sat.trackr.live / text

‹ back to catalog

QIANFAN-186

NORAD 69404 · 2026-125D

PAYLOAD ACTIVE UNKNOWN

§ Identity

Operator
Country
PRC
Launch date
2026-06-05
Launch site
WSC
Launch vehicle
Mass (kg)
RCS (m²)

External: N2YO · Heavens-Above · Gunter

§ Orbital elements

Epoch: 2026-09-19T22:34:30.222048Z

Period
106.59 min
Inclination
88.9885°
Eccentricity
0.0002022
Mean motion
13.51008240 rev/d
Perigee alt
1,067.0 km
Apogee alt
1,070.1 km
Semi-major
7,446.7 km
B*
2.3780e-5
RAAN
270.3882°
Arg perigee
95.8958°
Mean anomaly
264.2423°
Rev number
1,473

§ Raw data

QIANFAN-1861 69404U 26125D   26262.94062757  .00000027  00000+0  23780-4 0  99992 69404  88.9885 270.3882 0002022  95.8958 264.2423 13.51008240 14733

JSON: /api/v1/satellites/69404 · /tle

For live sub-satellite position, see the globe view (requires WebGL).

§ Visibility from observer

Set your observer location to see the next 7 days of passes ≥ 10°. The values pass through the URL so the page stays shareable.

No JS? Fill the form by hand. The geolocation button needs JavaScript.